Wind_Speed
23 24 24 25 25 25 25 24 24 23 23 22 21 20 20 19 18 19 19 20 24 27 31 32 35 34 33 31 29 27 26 24 22 21 20 20 20 19 18 17 15 13 11
25 25 26 26 26 26 26 26 26 26 25 24 23 23 22 21 20 20 20 20 22 25 28 33 35 37 36 35 33 31 29 28 26 24 23 22 21 21 20 19 17 16 14
25 26 26 26 26 26 27 27 27 26 26 25 25 25 24 23 22 22 22 22 23 24 27 30 34 37 38 38 37 35 33 31 30 28 26 25 24 22 21 21 20 18 16
24 25 25 25 25 26 26 26 27 27 26 26 26 26 25 25 24 24 24 24 24 24 26 30 33 35 38 40 40 38 37 35 33 32 30 28 26 25 23 22 22 21 19
23 24 24 24 25 25 26 26 26 26 26 26 26 26 26 26 26 26 25 25 25 25 26 29 32 35 37 39 41 41 40 38 37 35 33 31 29 28 26 25 23 22 21
22 23 23 24 25 25 25 25 26 26 26 26 26 27 27 28 28 28 28 27 27 26 26 29 32 34 36 39 41 42 42 41 39 37 36 34 32 30 29 28 26 24 23
21 22 23 23 24 25 25 25 25 25 26 26 27 27 28 29 29 30 30 29 29 28 27 29 31 34 35 37 40 41 42 42 42 40 39 37 35 33 31 30 28 27 25
21 21 22 23 24 24 25 25 25 26 26 26 26 27 28 29 30 31 31 31 31 30 30 30 31 33 34 36 38 40 42 42 42 41 40 39 37 35 34 32 30 29 27
19 20 21 22 23 23 24 24 25 26 27 27 27 27 28 30 30 31 31 32 32 32 31 32 32 33 35 36 37 39 41 41 41 40 40 41 40 37 36 34 32 30 29
17 18 19 19 21 22 23 24 25 26 27 27 28 29 29 30 31 31 31 32 32 33 33 33 34 34 35 36 37 39 40 41 41 41 41 41 41 40 38 36 34 32 30
17 18 18 19 20 22 23 24 25 27 28 29 30 30 31 31 32 33 33 33 33 34 35 35 35 35 36 36 37 39 40 41 41 41 41 41 41 41 39 37 35 34 33
18 19 20 21 22 23 24 26 27 29 30 31 33 33 34 34 35 35 35 36 36 36 36 37 37 37 36 37 38 40 40 41 42 42 41 42 41 41 41 39 37 35 34
20 21 22 23 24 25 26 28 29 30 31 33 34 35 36 37 37 38 38 38 39 39 39 39 39 39 39 39 40 40 40 41 42 43 43 43 43 43 42 41 39 36 35
24 25 26 26 27 27 29 30 31 32 33 34 36 37 38 39 40 40 41 41 41 42 42 42 41 41 41 41 40 40 40 41 42 43 44 44 45 44 44 42 41 39 38
27 28 29 30 30 31 31 32 33 33 34 35 36 37 39 40 41 41 42 43 43 44 45 44 42 43 43 43 42 42 42 41 41 42 43 44 45 45 44 44 42 41 40
29 30 32 33 34 34 35 35 35 35 35 36 36 37 38 40 41 42 43 44 45 46 46 46 46 44 45 44 44 44 43 42 41 42 43 44 45 45 45 45 44 42 41
32 33 34 36 37 37 38 38 37 37 36 36 36 37 37 39 40 42 43 44 45 47 47 47 49 48 47 47 45 45 44 44 43 42 42 43 45 45 45 45 45 43 42
36 37 38 39 40 41 41 40 39 38 37 36 36 37 37 38 39 40 42 43 44 46 47 48 49 50 49 49 48 46 46 45 44 43 43 43 44 44 45 44 45 44 42
38 40 41 42 43 43 42 41 40 39 37 37 36 36 36 37 38 39 40 42 43 45 47 48 48 50 50 50 50 49 47 46 45 43 43 43 43 43 44 44 43 43 42
42 43 44 45 45 44 43 42 40 39 37 36 36 35 35 36 37 38 39 40 42 44 45 47 48 49 50 50 50 49 49 47 46 45 44 44 44 44 44 45 44 44 43
45 46 46 46 45 44 43 41 40 38 37 36 35 35 35 35 36 37 38 40 41 43 45 47 48 50 50 51 51 50 49 48 47 46 45 45 44 44 44 44 45 44 44
47 47 47 45 44 43 42 40 38 36 36 35 35 35 35 34 35 36 38 40 42 43 45 47 48 50 51 52 52 52 51 50 49 47 47 46 44 44 44 45 44 44 43
47 47 46 44 43 42 40 38 36 35 34 34 34 34 34 34 35 35 37 39 41 43 45 47 49 50 51 52 53 53 53 52 50 49 48 47 46 44 44 44 44 44 42
48 47 45 43 41 40 38 36 35 33 32 32 32 33 33 34 35 36 37 38 40 42 45 47 49 51 53 54 54 54 54 53 52 50 49 48 48 46 44 43 44 44 42
48 45 43 41 39 38 36 35 33 32 31 31 31 31 32 33 34 35 36 38 39 41 44 46 49 51 53 55 56 56 56 55 53 52 50 48 47 47 45 44 43 43 43
46 43 41 39 37 36 34 33 32 31 30 30 31 32 32 33 34 35 35 36 37 39 42 45 48 50 53 55 57 58 58 57 55 53 51 50 47 47 46 44 44 44 44
Wind_Direction
287 285 285 285 285 285 285 283 282 282 281 279 276 275 273 270 266 261 256 247 238 232 228 225 223 221 219 217 217 216 216 215 214 213 213 213 213 214 214 212 211 210 208
286 284 283 282 282 282 281 280 279 278 278 277 275 272 269 268 267 264 258 253 245 239 234 228 226 224 223 220 220 219 218 218 217 216 216 215 216 217 219 220 220 220 219
284 283 283 282 281 281 280 278 277 277 275 274 272 271 268 267 266 265 260 254 249 245 240 233 229 227 226 224 223 221 220 220 220 220 218 218 218 219 221 223 225 225 226
283 283 283 283 282 281 280 278 277 276 275 273 270 269 267 265 264 264 261 255 251 247 242 238 233 230 228 226 225 224 222 222 222 221 220 221 221 221 222 224 227 228 229
282 282 283 283 282 281 280 278 277 276 274 271 269 266 265 263 262 262 260 257 252 250 245 242 236 232 230 229 227 226 225 223 223 222 223 223 223 223 223 224 226 229 230
284 283 282 282 281 281 281 280 278 276 274 272 269 266 264 263 261 260 259 257 253 252 249 245 238 234 232 230 228 227 226 226 223 222 222 223 224 225 225 225 226 227 229
290 288 286 285 284 282 281 280 278 277 275 273 270 267 264 262 260 258 258 257 254 252 251 247 241 236 235 232 230 228 228 228 226 225 224 223 224 224 224 224 225 227 229
296 293 291 289 288 286 284 281 279 278 276 274 271 268 265 263 260 259 257 256 253 251 249 247 243 239 237 234 232 230 229 228 228 227 226 224 224 223 223 224 225 226 228
302 298 295 293 291 289 288 286 283 280 278 275 272 269 266 264 262 259 257 254 252 250 248 245 243 240 237 235 232 231 229 229 229 228 226 225 223 223 222 222 224 226 229
311 307 303 300 297 295 293 291 288 285 281 277 274 270 267 264 262 260 257 255 252 248 246 243 240 240 238 235 233 231 229 230 230 229 227 225 223 223 222 222 223 225 227
317 314 311 308 305 301 298 295 292 288 284 280 276 271 268 265 261 259 257 255 252 249 246 243 239 239 238 234 232 230 230 230 229 228 227 225 224 223 222 222 222 224 226
319 318 315 312 309 306 302 299 294 290 286 282 278 274 269 265 261 258 256 254 252 249 246 244 241 239 238 234 233 231 232 231 229 228 226 224 222 222 221 223 223 224 226
319 319 316 314 311 308 305 302 298 293 288 284 279 275 271 267 262 258 255 253 251 249 246 244 242 240 239 236 233 233 233 231 228 229 227 225 223 222 221 222 222 223 224
316 316 316 314 311 309 306 303 299 294 290 285 281 276 271 268 263 259 255 252 250 248 246 244 242 240 240 239 235 234 232 231 228 228 227 226 225 224 223 221 221 222 223
314 314 314 313 311 309 306 303 299 295 291 286 281 276 272 268 263 259 255 252 249 247 246 243 241 239 239 238 237 235 234 232 228 227 226 225 224 224 224 223 221 222 224
314 313 313 312 310 308 305 303 299 296 292 287 282 277 272 267 263 259 255 252 249 246 245 243 240 238 237 237 236 236 236 234 231 228 226 225 225 225 225 225 223 222 223
314 312 312 310 309 307 305 302 299 296 292 287 282 277 273 269 264 260 255 252 248 246 244 243 241 238 237 236 235 235 235 235 233 230 228 227 225 224 223 224 223 224 224
315 313 312 310 309 306 305 302 299 296 292 287 282 277 272 268 264 260 256 252 249 245 243 241 241 239 237 236 235 234 234 234 234 233 230 227 225 223 224 224 224 224 224
315 314 312 311 309 306 304 302 299 296 292 287 282 277 272 268 264 261 257 253 249 245 242 240 240 239 238 237 235 234 234 234 233 233 232 230 225 223 223 222 222 223 223
316 314 312 310 308 306 304 302 299 296 292 287 282 277 273 269 264 261 257 253 249 246 242 240 238 238 238 237 235 233 233 233 232 232 233 232 228 224 223 221 222 222 222
316 314 313 310 308 305 303 301 299 296 292 287 282 278 274 270 266 261 258 255 251 247 243 240 238 237 237 236 235 233 233 232 231 231 232 231 230 227 223 222 222 221 221
317 315 314 311 308 305 303 301 299 295 291 287 284 280 276 272 268 264 259 255 252 248 244 241 238 237 236 236 235 233 232 232 231 230 231 230 230 228 226 223 221 220 219
319 317 315 312 309 306 304 301 299 296 292 289 286 282 278 274 271 266 261 256 252 249 245 242 239 236 235 235 234 233 231 231 231 230 230 230 229 228 227 224 221 219 217
321 319 316 313 310 308 305 302 300 297 294 290 287 283 280 276 272 268 263 258 254 251 246 243 240 237 234 233 233 232 230 229 229 229 229 230 229 228 227 224 221 218 216
322 320 317 313 311 309 307 304 301 298 295 292 289 286 282 278 275 271 266 260 256 252 247 244 241 237 234 232 231 230 228 228 228 227 227 228 227 227 226 224 220 218 216
323 321 318 315 313 310 309 306 303 300 296 293 291 287 283 279 276 273 268 263 257 252 249 245 241 238 235 232 230 229 227 227 227 226 225 226 226 226 226 224 221 218 215
Height
5871 5870 5868 5867 5867 5866 5865 5864 5864 5864 5863 5863 5862 5863 5863 5863 5863 5863 5864 5865 5866 5869 5871 5874 5877 5881 5884 5887 5891 5894 5897 5900 5902 5904 5907 5909 5911 5913 5915 5917 5919 5921 5922
5865 5864 5863 5862 5861 5860 5859 5859 5858 5858 5858 5857 5857 5857 5857 5857 5858 5858 5858 5859 5861 5863 5865 5868 5871 5875 5878 5882 5886 5889 5892 5895 5898 5901 5904 5906 5908 5911 5913 5915 5917 5919 5921
5859 5858 5856 5856 5855 5854 5853 5852 5852 5851 5851 5851 5851 5851 5851 5852 5852 5853 5853 5854 5855 5857 5859 5861 5865 5868 5872 5876 5880 5883 5887 5890 5894 5897 5900 5902 5905 5907 5910 5913 5915 5917 5919
5853 5852 5850 5849 5848 5847 5847 5846 5846 5845 5845 5845 5845 5845 5845 5846 5846 5847 5848 5848 5849 5851 5853 5855 5857 5861 5865 5869 5873 5877 5881 5885 5888 5892 5895 5898 5901 5904 5907 5909 5912 5915 5917
5847 5845 5844 5843 5842 5841 5840 5840 5839 5839 5838 5838 5838 5838 5839 5839 5840 5841 5842 5842 5843 5845 5846 5848 5850 5854 5857 5862 5866 5870 5874 5878 5882 5886 5890 5893 5897 5900 5903 5906 5908 5911 5914
5841 5840 5838 5837 5836 5835 5834 5833 5832 5832 5831 5831 5831 5831 5832 5832 5833 5834 5835 5836 5837 5838 5840 5841 5843 5846 5850 5854 5858 5863 5867 5871 5875 5880 5884 5888 5891 5895 5898 5902 5905 5907 5910
5836 5834 5832 5831 5830 5828 5828 5826 5826 5825 5825 5824 5824 5824 5825 5825 5826 5827 5828 5829 5830 5832 5833 5834 5837 5839 5842 5846 5850 5855 5859 5864 5868 5873 5877 5881 5885 5889 5893 5897 5900 5903 5906
5830 5828 5826 5825 5823 5822 5821 5820 5819 5818 5818 5817 5817 5817 5817 5818 5818 5819 5820 5822 5823 5824 5826 5827 5829 5832 5835 5838 5843 5847 5851 5856 5860 5865 5869 5874 5879 5883 5887 5891 5895 5898 5902
5824 5822 5821 5819 5817 5815 5814 5813 5812 5811 5810 5810 5810 5810 5810 5810 5811 5812 5812 5814 5815 5817 5818 5820 5822 5825 5827 5831 5835 5839 5843 5848 5852 5857 5862 5867 5872 5876 5881 5885 5889 5893 5897
5820 5818 5816 5814 5812 5810 5808 5807 5805 5804 5803 5803 5802 5802 5802 5802 5802 5803 5805 5805 5807 5808 5810 5812 5815 5817 5819 5823 5827 5831 5836 5840 5844 5849 5854 5859 5864 5869 5874 5879 5883 5887 5891
5816 5814 5811 5809 5807 5804 5802 5800 5799 5797 5796 5795 5794 5794 5794 5794 5794 5795 5796 5797 5798 5800 5802 5804 5807 5810 5812 5815 5818 5823 5827 5832 5836 5841 5845 5850 5856 5861 5867 5872 5876 5881 5885
5812 5809 5806 5804 5801 5798 5796 5794 5791 5790 5788 5786 5785 5784 5784 5785 5785 5786 5787 5788 5789 5791 5793 5796 5799 5801 5804 5807 5811 5815 5819 5823 5828 5833 5838 5843 5848 5853 5859 5864 5869 5874 5878
5807 5804 5801 5798 5795 5792 5789 5786 5783 5781 5779 5777 5775 5774 5774 5774 5775 5776 5777 5778 5779 5781 5784 5786 5789 5793 5795 5799 5802 5806 5810 5815 5819 5824 5829 5835 5840 5845 5851 5856 5862 5866 5871
5801 5798 5795 5791 5788 5784 5781 5778 5774 5772 5769 5767 5765 5764 5763 5762 5763 5764 5766 5767 5769 5771 5773 5776 5780 5783 5786 5789 5793 5797 5801 5806 5810 5815 5821 5826 5831 5837 5842 5848 5853 5859 5864
5795 5791 5787 5783 5780 5776 5772 5768 5765 5762 5759 5756 5754 5752 5751 5750 5751 5752 5753 5755 5758 5760 5762 5765 5769 5773 5776 5780 5784 5788 5792 5796 5801 5806 5811 5817 5822 5828 5834 5839 5845 5850 5856
5787 5783 5779 5775 5770 5766 5762 5758 5754 5751 5748 5745 5742 5740 5739 5738 5738 5739 5740 5742 5745 5748 5751 5754 5757 5761 5765 5770 5774 5778 5783 5787 5792 5797 5802 5808 5813 5819 5825 5831 5836 5842 5848
5779 5774 5770 5765 5760 5756 5751 5747 5743 5739 5736 5733 5730 5728 5726 5725 5725 5726 5727 5729 5732 5735 5739 5742 5745 5749 5754 5759 5764 5769 5773 5778 5783 5788 5793 5798 5804 5810 5816 5822 5828 5834 5840
5770 5765 5760 5755 5749 5744 5740 5735 5731 5727 5723 5720 5717 5715 5714 5713 5712 5713 5714 5716 5719 5722 5726 5730 5733 5738 5742 5748 5753 5759 5764 5768 5773 5778 5784 5789 5795 5801 5807 5813 5819 5825 5831
5761 5755 5750 5744 5738 5732 5727 5722 5718 5714 5710 5707 5705 5702 5701 5700 5700 5700 5701 5703 5706 5709 5713 5718 5722 5726 5731 5736 5742 5748 5753 5759 5764 5769 5774 5780 5785 5792 5798 5804 5810 5816 5823
5752 5745 5739 5732 5726 5720 5715 5710 5705 5701 5698 5695 5692 5690 5689 5688 5688 5688 5689 5691 5693 5696 5700 5705 5709 5714 5719 5724 5730 5737 5743 5748 5754 5760 5765 5770 5776 5782 5789 5795 5801 5808 5814
5741 5734 5728 5721 5714 5708 5703 5698 5693 5689 5685 5682 5680 5678 5676 5676 5675 5676 5677 5678 5680 5684 5687 5692 5697 5702 5707 5712 5719 5725 5731 5737 5744 5750 5756 5762 5768 5774 5779 5786 5792 5798 5805
5731 5723 5716 5709 5702 5696 5691 5686 5681 5677 5673 5670 5667 5665 5664 5663 5663 5663 5664 5665 5668 5670 5674 5679 5684 5689 5695 5700 5706 5713 5720 5727 5734 5741 5746 5752 5759 5765 5770 5777 5783 5789 5796
5720 5712 5705 5697 5691 5685 5679 5674 5669 5665 5662 5658 5656 5653 5652 5651 5650 5650 5651 5652 5654 5657 5660 5664 5670 5676 5682 5688 5695 5702 5708 5715 5723 5730 5736 5742 5749 5756 5762 5768 5774 5781 5788
5709 5701 5693 5686 5680 5674 5668 5663 5659 5655 5651 5647 5645 5642 5640 5638 5637 5637 5637 5639 5640 5643 5646 5650 5656 5662 5667 5673 5681 5688 5696 5703 5711 5718 5726 5733 5740 5747 5753 5759 5765 5772 5779
5698 5690 5682 5675 5669 5663 5658 5653 5648 5644 5640 5637 5634 5631 5629 5627 5625 5624 5624 5625 5626 5629 5631 5635 5641 5646 5653 5660 5667 5675 5684 5692 5699 5708 5715 5723 5730 5737 5744 5750 5757 5764 5771
5687 5679 5672 5665 5659 5653 5648 5643 5638 5634 5631 5627 5623 5620 5617 5615 5613 5611 5610 5611 5613 5615 5617 5621 5626 5631 5638 5645 5652 5661 5670 5679 5688 5696 5705 5713 5720 5727 5735 5742 5749 5756 5763